This demonstration page uses our WeatherBlox Daily Observations layout. Learn more.

Left ArrowRight Arrow

39.12711, -84.51439

Hourly Observations for October 5, 2018

Temp ( °F °C ) Dew Point ( °F °C ) Humidity (%) Winds ( mph kmh ) Pressure ( in mb ) Visibility ( mi km ) Precip ( " mm )
12:49 am 00:49 Mostly Cloudy 66 19 64 18 94 94 ENE 9 15 30.09 1019 10 16 N/A
12:53 am 00:53 Mostly Cloudy 67 19.4 64 17.8 91 91 ENE 7 11 30.11 1020 10 16 N/A
1:53 am 01:53 Cloudy 67 19.4 64 17.8 91 91 E 5 7 30.11 1020 10 16 N/A
2:53 am 02:53 Cloudy 67 19.4 64 17.8 91 91 E 8 13 30.09 1019 10 16 N/A
3:02 am 03:02 Cloudy 66 18.9 64 17.8 93 93 ENE 8 13 30.09 1019 10 16 N/A
3:36 am 03:36 Cloudy 66 18.9 63 17.2 90 90 ENE 5 7 30.09 1019 10 16 N/A
3:53 am 03:53 Cloudy 66 18.9 63 17.2 90 90 NE 7 11 30.09 1019 10 16 N/A
4:24 am 04:24 Cloudy 65 18.3 62 16.7 90 90 NE 7 11 30.06 1018 10 16 N/A
4:53 am 04:53 Cloudy 65 18.3 62 16.7 90 90 NE 7 11 30.09 1019 10 16 N/A
5:53 am 05:53 Cloudy 65 18.3 62 16.7 90 90 NE 5 7 30.09 1019 10 16 N/A
6:53 am 06:53 Cloudy 64 17.8 62 16.7 93 93 E 3 6 30.09 1019 10 16 N/A
7:53 am 07:53 Cloudy 64 17.8 62 16.7 93 93 SE 3 6 30.10 1019 10 16 N/A
8:53 am 08:53 Cloudy 64 17.8 63 17.2 96 96 SSE 3 6 30.10 1019 9 14 N/A
9:53 am 09:53 Cloudy 65 18.3 64 17.8 97 97 SSE 3 6 30.10 1019 7 11 N/A
10:53 am 10:53 Cloudy with Mist and Fog 67 19.4 65 18.3 93 93 N N/A 30.10 1019 4 6 N/A
11:53 am 11:53 Cloudy 69 20.6 68 20 96 96 S 3 6 30.08 1019 7 11 N/A
12:26 pm 12:26 Cloudy with Mist and Fog 72 22.2 69 20.6 91 91 S 6 9 30.06 1018 6 10 N/A
12:53 pm 12:53 Mostly Cloudy with Mist and Fog 75 23.9 71 21.7 88 88 S 9 15 30.06 1018 6 10 N/A
1:44 pm 13:44 Mostly Sunny 78 25.6 73 22.8 85 85 S 7 11 30.03 1017 10 16 N/A
1:53 pm 13:53 Mostly Sunny 79 26.1 73 22.8 82 82 SSW 7 11 30.04 1017 10 16 N/A
2:53 pm 14:53 Mostly Sunny 83 28.3 74 23.3 74 74 VRB 3 6 30.01 1016 10 16 N/A
3:53 pm 15:53 Partly Cloudy 85 29.4 75 23.9 72 72 SSE 5 7 29.99 1016 10 16 N/A
4:53 pm 16:53 Partly Cloudy 82 27.8 75 23.9 79 79 S 7 11 29.98 1015 10 16 N/A
5:53 pm 17:53 Partly Cloudy 81 27.2 74 23.3 79 79 S 5 7 30.00 1016 10 16 N/A
6:53 pm 18:53 Partly Cloudy 75 23.9 73 22.8 94 94 S 6 9 30.00 1016 10 16 N/A
7:53 pm 19:53 Mostly Clear 74 23.3 73 22.8 97 97 SW 3 6 30.01 1016 10 16 N/A
8:53 pm 20:53 Clear 72 22.2 72 22.2 100 100 S 5 7 30.03 1017 10 16 N/A
9:53 pm 21:53 Clear 72 22.2 72 22.2 100 100 SSW 5 7 30.04 1017 10 16 N/A
10:53 pm 22:53 Clear 72 22.2 72 22.2 100 100 SSW 7 11 30.04 1017 10 16 N/A
11:53 pm 23:53 Clear 71 21.7 71 21.7 100 100 W 3 6 30.03 1017 10 16 N/A

Powered by AerisWeather